Flag for Germany Weather past 2 weeks in Fürstenwalde/Spree, Brandenburg, Germany

Now
76 °F

Partly sunny.


Feels Like: 78 °F
Forecast: 60 / 88 °F
Wind: 6 mph from West

Location: Lindenberg

Current Time: Jul 6, 2015 at 3:31:56 PM

Latest Report: Jul 6, 2015 at 3:00 PM


Visibility: 25 mi

Pressure: 30.09 "Hg

Humidity: 43%

Dew point: 51 °F

Location of Fürstenwalde/SpreeLocation

Historic Weather in Fürstenwalde/Spree — Graph

°F

Fürstenwalde/Spree temperature yesterday

Maximum temperature yesterday: 95 °F (at 4:00 PM)
Minimum temperature yesterday: 75 °F (at 8:00 AM)
Average temperature yesterday: 85 °F

Past Weeks' High & Low Weather Summary

 TemperatureHumidityPressure
High96 °F (Jul 4, 4:00 PM)98% (Jun 27, 10:00 PM)30.28 "Hg (Jun 27, 10:00 PM)
Low49 °F (Jun 24, 3:00 AM)24% (Jul 4, 6:00 PM)29.62 "Hg (Jun 23, 2:00 AM)
Average67 °F65%30.06 "Hg
* Reported Jun 21 2:00 PM — Jul 6 2:00 PM, Fürstenwalde/Spree, Weather by CustomWeather, © 2015

Note: Actual official high and low records may vary slightly from our data, if they occured in-between our weather recording intervals... More about our weather records

Advertising

Fürstenwalde/Spree weather history for previous 24 hours

 ConditionsComfort  
Time TempWeatherWind HumidityBarometerVisibility
2:00 PM
Mon, Jul 6
74 °FPartly sunny.6 mph48%30.09 "Hg25 mi
1:00 PM72 °FPartly sunny.6 mph51%30.10 "Hg25 mi
12:00 PM71 °FScattered clouds.7 mph60%30.09 "Hg25 mi
10:00 AM68 °FPartly sunny.7 mph79%30.06 "Hg19 mi
9:00 AM65 °FOvercast.7 mph86%30.04 "Hg16 mi
8:00 AM67 °FLow clouds.6 mph92%30.01 "Hg5 mi
7:00 AM68 °FLow clouds.7 mph95%29.97 "Hg2 mi
6:00 AM68 °FLight rain. Overcast.2 mph95%29.90 "Hg5 mi
4:00 AM69 °FLight rain. Overcast.5 mph94%29.95 "Hg7 mi
3:00 AM69 °FLight rain. Overcast.3 mph96%29.93 "Hg7 mi
2:00 AM70 °FThundershowers. Overcast.3 mph90%29.97 "Hg6 mi
1:00 AM72 °FThundershowers. Overcast.5 mph79%29.91 "Hg9 mi
12:00 AM79 °FThunderstorms. Overcast.8 mph56%29.92 "Hg9 mi
10:00 PM
Sun, Jul 5
87 °FOvercast.5 mph42%29.85 "Hg9 mi
9:00 PM89 °FOvercast.3 mph39%29.86 "Hg12 mi
8:00 PM91 °FPartly sunny.3 mph35%29.87 "Hg9 mi
7:00 PM95 °FScattered clouds.2 mph31%29.88 "Hg9 mi
6:00 PM94 °FScattered clouds.3 mph31%29.91 "Hg12 mi
4:00 PM95 °FPassing clouds.2 mph28%29.95 "Hg19 mi
3:00 PM94 °FPassing clouds.2 mph28%29.97 "Hg19 mi
Weather by CustomWeather, © 2015

See weather overviewHow to use our weather pages